Massena, NY

5:03 AM EDT on April 25, 2018 (GMT -0400)
Massena International-Richards

Weather History for KMSS - October, 2013

Change the Weather History Date:

Thursday, October 3, 2013

  Actual Average Record
Temperature  
Mean Temperature 58 °F 51 °F  
Max Temperature 72 °F 62 °F 83 °F (1953)
Min Temperature 44 °F 41 °F 29 °F (1975)
Degree Days  
Heating Degree Days 7 14  
Month to date heating degree days 10 41  
Since 1 July heating degree days 311 341  
Cooling Degree Days 0 0  
Month to date cooling degree days 0 0  
Year to date cooling degree days 418 361  
Growing Degree Days 8 (Base 50)    
Moisture  
Dew Point 46 °F    
Average Humidity 69    
Maximum Humidity 93    
Minimum Humidity 44    
Precipitation  
Precipitation 0.00 in 0.11 in 0.71 in (1954)
Month to date precipitation 0.00 0.32  
Year to date precipitation 28.56 26.51  
Sea Level Pressure  
Sea Level Pressure 30.07 in    
Wind  
Wind Speed 3 mph (SW)    
Max Wind Speed 10 mph    
Max Gust Speed 14 mph    
Visibility 10 miles    
Events      
T = Trace of Precipitation, MM = Missing Value Source: NWS Daily Summary

Daily Weather History Graph

Daily Weather History Graph

Search for Another Location

Airport or City:

Astronomy

Oct. 03, 2013 Rise Set
Actual Time 7:00 AM EDT 6:35 PM EDT
Civil Twilight 6:30 AM EDT 7:04 PM EDT
Nautical Twilight 5:56 AM EDT 7:38 PM EDT
Astronomical Twilight 5:22 AM EDT 8:13 PM EDT
Moon 5:28 AM EDT (10/3) 5:44 PM EDT (10/3)
Length of Visible Light 12h 34m
Length of Day
11h 35m
Waning Crescent, 2% of the Moon is Illuminated
Oct 3
Waning Crescent
Oct 4
New
Oct 11
First Quarter
Oct 18
Full
Oct 26
Last Quarter

Hourly Weather History & Observations

Time (EDT) Temp. Dew Point Humidity Pressure Visibility Wind Dir Wind Speed Gust Speed Precip Events Conditions
12:53 AM 52.0 °F 43.0 °F 71% 30.02 in 10.0 mi SW 6.9 mph - N/A   Clear
1:53 AM 48.9 °F 42.1 °F 77% 30.02 in 10.0 mi SW 4.6 mph - N/A   Clear
2:53 AM 50.0 °F 42.1 °F 74% 30.03 in 10.0 mi SW 6.9 mph - N/A   Clear
3:53 AM 48.9 °F 42.1 °F 77% 30.04 in 10.0 mi SW 5.8 mph - N/A   Clear
4:53 AM 48.0 °F 42.1 °F 80% 30.06 in 10.0 mi SW 4.6 mph - N/A   Clear
5:53 AM 46.9 °F 42.1 °F 83% 30.07 in 10.0 mi SW 4.6 mph - N/A   Clear
6:53 AM 46.9 °F 42.1 °F 83% 30.09 in 10.0 mi Calm Calm - N/A   Clear
7:53 AM 46.9 °F 44.1 °F 90% 30.11 in 10.0 mi SSW 3.5 mph - N/A   Clear
8:53 AM 54.0 °F 46.9 °F 77% 30.12 in 10.0 mi SSW 4.6 mph - N/A   Clear
9:53 AM 59.0 °F 48.0 °F 67% 30.14 in 10.0 mi SW 5.8 mph - N/A   Clear
10:53 AM 63.0 °F 48.0 °F 58% 30.14 in 10.0 mi SW 3.5 mph - N/A   Clear
11:53 AM 66.0 °F 48.0 °F 52% 30.12 in 10.0 mi South 5.8 mph - N/A   Clear
12:53 PM 69.1 °F 48.0 °F 47% 30.09 in 10.0 mi Calm Calm - N/A   Clear
1:53 PM 69.1 °F 48.0 °F 47% 30.08 in 10.0 mi WSW 4.6 mph - N/A   Clear
2:53 PM 71.1 °F 50.0 °F 47% 30.06 in 10.0 mi West 4.6 mph - N/A   Clear
3:53 PM 71.1 °F 48.9 °F 45% 30.04 in 10.0 mi Calm Calm - N/A   Clear
4:53 PM 71.1 °F 50.0 °F 47% 30.04 in 10.0 mi NW 5.8 mph - N/A   Clear
5:21 PM 69.8 °F 48.2 °F 46% 30.04 in 10.0 mi WSW 6.9 mph - N/A   Partly Cloudy
5:53 PM 68.0 °F 46.0 °F 45% 30.05 in 10.0 mi Calm Calm - N/A   Clear
6:53 PM 61.0 °F 48.0 °F 62% 30.06 in 10.0 mi Calm Calm - N/A   Clear
7:53 PM 55.9 °F 50.0 °F 80% 30.07 in 10.0 mi Calm Calm - N/A   Clear
8:53 PM 52.0 °F 48.0 °F 86% 30.07 in 10.0 mi Calm Calm - N/A   Clear
9:53 PM 51.1 °F 46.9 °F 86% 30.08 in 10.0 mi Calm Calm - N/A   Clear
10:53 PM 48.9 °F 46.0 °F 90% 30.08 in 7.0 mi Calm Calm - N/A   Clear